Weather History for KBQP - December, 2013

Change the Weather History Date:

Friday, December 20, 2013

  Actual Average (KMLU) Record (KMLU)
Temperature  
Mean Temperature 68 °F 47 °F  
Max Temperature 73 °F 58 °F 79 °F (1967)
Min Temperature 63 °F 37 °F 19 °F (1983)
Degree Days  
Heating Degree Days 0 18  
Month to date heating degree days 326  
Since 1 July heating degree days 698  
Cooling Degree Days 3 0  
Month to date cooling degree days 0  
Year to date cooling degree days 2508  
Growing Degree Days 18 (Base 50)    
Moisture  
Dew Point 63 °F    
Average Humidity 80    
Maximum Humidity 87    
Minimum Humidity 74    
Precipitation  
Precipitation 0.00 in 0.17 in 4.05 in (1951)
Month to date precipitation 3.46  
Year to date precipitation 52.19  
Snow  
Snow 0.00 in - - ()
Month to date snowfall  
Since 1 July snowfall  
Snow Depth -    
Sea Level Pressure  
Sea Level Pressure 29.92 in    
Wind  
Wind Speed 4 mph (SSE)    
Max Wind Speed 10 mph    
Max Gust Speed 23 mph    
Visibility 10 miles    
Events Rain    
T = Trace of Precipitation, MM = Missing Value Source: NWS Daily Summary

Daily Weather History Graph

Daily Weather History Graph

Search for Another Location

Airport or City:

Trip Planner

Search our weather history database for the weather conditions in past years. The results will help you decide how hot, cold, wet, or windy it might be!

Date:

Astronomy

Dec. 20, 2013 Rise Set
Actual Time 7:05 AM CST 5:05 PM CST
Civil Twilight 6:38 AM CST 5:32 PM CST
Nautical Twilight 6:07 AM CST 6:03 PM CST
Astronomical Twilight 5:37 AM CST 6:33 PM CST
Moon 8:17 PM CST (12/20) 9:07 AM CST (12/20)
Length of Visible Light 10h 54m
Length of Day
9h 59m
Waning Gibbous, 90% of the Moon is Illuminated
Dec 20
Waning Gibbous
Dec 25
Last Quarter
Jan 1
New
Jan 7
First Quarter
Jan 15
Full

Hourly Weather History & Observations

Time (CST) Temp. Dew Point Humidity Pressure Visibility Wind Dir Wind Speed Gust Speed Precip Events Conditions
12:15 AM 64.4 °F 56.3 °F 75% 29.96 in 10.0 mi South 5.8 mph - N/A   Scattered Clouds
12:35 AM 64.8 °F 56.5 °F 74% 29.95 in 10.0 mi South 8.1 mph - N/A   Mostly Cloudy
12:55 AM 64.8 °F 56.5 °F 74% 29.94 in 10.0 mi South 9.2 mph - N/A   Overcast
1:15 AM 64.8 °F 56.7 °F 75% 29.95 in 10.0 mi South 8.1 mph - N/A   Overcast
1:35 AM 64.8 °F 56.7 °F 75% 29.95 in 10.0 mi SSE 9.2 mph 16.1 mph N/A   Overcast
1:55 AM 64.6 °F 56.8 °F 76% 29.95 in 10.0 mi SSE 4.6 mph - N/A   Overcast
2:15 AM 63.5 °F 57.0 °F 79% 29.94 in 10.0 mi SSE 3.5 mph - N/A   Scattered Clouds
2:35 AM 63.0 °F 56.8 °F 80% 29.94 in 10.0 mi SSE 3.5 mph - N/A   Scattered Clouds
2:55 AM 63.0 °F 57.2 °F 81% 29.94 in 10.0 mi South 5.8 mph - N/A   Scattered Clouds
3:15 AM 63.9 °F 57.6 °F 80% 29.95 in 10.0 mi Calm Calm - N/A   Mostly Cloudy
3:35 AM 63.9 °F 57.6 °F 80% 29.95 in 10.0 mi Calm Calm - N/A   Overcast
3:55 AM 64.4 °F 58.1 °F 80% 29.95 in 10.0 mi Calm Calm - N/A   Overcast
4:15 AM 64.2 °F 58.3 °F 81% 29.95 in 10.0 mi Calm Calm - N/A   Overcast
4:35 AM 63.9 °F 58.5 °F 83% 29.95 in 10.0 mi Calm Calm - N/A   Mostly Cloudy
4:55 AM 64.8 °F 59.0 °F 82% 29.95 in 10.0 mi Calm Calm - N/A   Overcast
5:15 AM 65.1 °F 59.2 °F 81% 29.95 in 10.0 mi Calm Calm - N/A   Overcast
5:35 AM 65.3 °F 59.7 °F 82% 29.95 in 10.0 mi Calm Calm - N/A   Overcast
5:55 AM 65.3 °F 59.9 °F 83% 29.95 in 10.0 mi Calm Calm - N/A   Overcast
6:15 AM 65.5 °F 60.1 °F 83% 29.94 in 10.0 mi Calm Calm - N/A   Overcast
6:35 AM 65.7 °F 60.4 °F 83% 29.95 in 10.0 mi Calm Calm - N/A   Overcast
6:55 AM 65.8 °F 60.8 °F 84% 29.95 in 10.0 mi Calm Calm - N/A   Overcast
7:15 AM 66.2 °F 61.0 °F 83% 29.96 in 10.0 mi Calm Calm - N/A   Overcast
7:35 AM 66.2 °F 61.3 °F 84% 29.97 in 10.0 mi Calm Calm - N/A   Overcast
7:55 AM 66.4 °F 61.7 °F 85% 29.96 in 10.0 mi Calm Calm - N/A   Overcast
8:15 AM 66.7 °F 61.9 °F 84% 29.97 in 10.0 mi Calm Calm - N/A   Overcast
8:35 AM 67.1 °F 62.1 °F 84% 29.98 in 10.0 mi Calm Calm - N/A   Overcast
8:55 AM 67.3 °F 62.6 °F 85% 29.99 in 10.0 mi Calm Calm - N/A   Overcast
9:15 AM 67.3 °F 62.4 °F 84% 29.99 in 10.0 mi Calm Calm - N/A   Overcast
9:35 AM 67.1 °F 63.0 °F 87% 30.00 in 7.0 mi Calm Calm - N/A   Overcast
9:55 AM 66.9 °F 63.0 °F 87% 30.01 in 7.0 mi Calm Calm - N/A   Overcast
10:15 AM 67.8 °F 63.0 °F 84% 30.01 in 10.0 mi Calm Calm - N/A   Overcast
10:35 AM 68.0 °F 63.3 °F 85% 30.01 in 7.0 mi Calm Calm - N/A   Overcast
10:55 AM 70.0 °F 63.9 °F 81% 29.99 in 10.0 mi Calm Calm - N/A   Overcast
11:15 AM 72.0 °F 64.4 °F 77% 29.99 in 10.0 mi South 5.8 mph - N/A   Overcast
11:35 AM 71.1 °F 64.4 °F 79% 29.99 in 10.0 mi South 3.5 mph - N/A   Overcast
11:55 AM 70.7 °F 64.4 °F 80% 29.96 in 10.0 mi Calm Calm - N/A   Overcast
12:15 PM 71.6 °F 64.6 °F 78% 29.95 in 10.0 mi Calm Calm - N/A   Overcast
12:35 PM 72.7 °F 64.9 °F 77% 29.94 in 10.0 mi South 5.8 mph - N/A   Overcast
12:55 PM 72.7 °F 65.5 °F 78% 29.94 in 7.0 mi South 8.1 mph - N/A Rain Rain
1:15 PM 71.6 °F 66.2 °F 83% 29.92 in 10.0 mi Calm Calm - N/A   Scattered Clouds
1:35 PM 72.0 °F 66.2 °F 82% 29.91 in 10.0 mi South 10.4 mph 16.1 mph N/A   Scattered Clouds
1:55 PM 72.9 °F 65.8 °F 79% 29.90 in 10.0 mi South 9.2 mph - N/A   Scattered Clouds
2:15 PM 73.2 °F 65.7 °F 77% 29.90 in 10.0 mi Calm Calm - N/A   Scattered Clouds
2:35 PM 73.4 °F 65.8 °F 77% 29.90 in 10.0 mi South 3.5 mph - N/A   Scattered Clouds
2:55 PM 73.4 °F 66.2 °F 78% 29.90 in 10.0 mi South 4.6 mph - N/A   Clear
3:15 PM 73.4 °F 66.2 °F 78% 29.90 in 10.0 mi South 3.5 mph - N/A   Clear
3:35 PM 73.4 °F 66.2 °F 78% 29.90 in 10.0 mi South 3.5 mph - N/A   Clear
3:55 PM 73.4 °F 66.2 °F 78% 29.89 in 10.0 mi Calm Calm - N/A   Mostly Cloudy
4:15 PM 72.9 °F 66.2 °F 80% 29.89 in 10.0 mi Calm Calm - N/A   Scattered Clouds
4:35 PM 72.3 °F 66.2 °F 81% 29.90 in 10.0 mi Calm Calm - N/A   Scattered Clouds
4:55 PM 71.8 °F 66.2 °F 83% 29.89 in 10.0 mi Calm Calm - N/A   Mostly Cloudy
5:15 PM 71.2 °F 66.2 °F 84% 29.89 in 10.0 mi Calm Calm - N/A   Mostly Cloudy
5:35 PM 71.1 °F 66.4 °F 85% 29.88 in 10.0 mi Calm Calm - N/A   Mostly Cloudy
5:55 PM 71.2 °F 66.2 °F 84% 29.89 in 10.0 mi Calm Calm - N/A   Overcast
6:15 PM 71.2 °F 66.2 °F 84% 29.89 in 10.0 mi Calm Calm - N/A   Overcast
6:35 PM 71.6 °F 66.2 °F 83% 29.89 in 10.0 mi Calm Calm - N/A   Overcast
6:55 PM 72.0 °F 66.2 °F 82% 29.88 in 10.0 mi Calm Calm - N/A   Overcast
7:15 PM 71.6 °F 66.2 °F 83% 29.89 in 10.0 mi Calm Calm - N/A   Mostly Cloudy
7:35 PM 71.6 °F 66.2 °F 83% 29.89 in 10.0 mi Calm Calm - N/A   Mostly Cloudy
7:55 PM 71.6 °F 66.2 °F 83% 29.89 in 10.0 mi Calm Calm - N/A   Overcast
8:15 PM 71.6 °F 65.7 °F 81% 29.88 in 10.0 mi SSE 4.6 mph - N/A   Overcast
8:35 PM 71.8 °F 65.3 °F 80% 29.87 in 10.0 mi SSE 8.1 mph - N/A   Mostly Cloudy
8:55 PM 71.8 °F 65.1 °F 79% 29.87 in 10.0 mi South 6.9 mph - N/A   Mostly Cloudy
9:15 PM 72.1 °F 64.9 °F 78% 29.86 in 10.0 mi SSE 6.9 mph - N/A   Overcast
9:35 PM 72.0 °F 64.8 °F 78% 29.85 in 10.0 mi SSE 4.6 mph - N/A   Mostly Cloudy
9:55 PM 71.8 °F 64.8 °F 78% 29.85 in 10.0 mi SSE 6.9 mph 16.1 mph N/A   Scattered Clouds
10:15 PM 72.5 °F 64.8 °F 77% 29.84 in 10.0 mi South 9.2 mph 17.3 mph N/A   Overcast
10:35 PM 72.7 °F 64.6 °F 76% 29.84 in 10.0 mi SSE 9.2 mph - N/A   Overcast
10:55 PM 72.5 °F 64.4 °F 76% 29.84 in 10.0 mi SSE 8.1 mph 17.3 mph N/A   Overcast
11:15 PM 72.3 °F 64.6 °F 77% 29.84 in 10.0 mi SSE 10.4 mph 18.4 mph N/A   Overcast
11:35 PM 72.7 °F 64.8 °F 76% 29.82 in 10.0 mi SSE 8.1 mph 19.6 mph N/A   Overcast
11:55 PM 72.5 °F 64.8 °F 77% 29.82 in 10.0 mi South 8.1 mph 23.0 mph N/A   Overcast